ANIK F3

Last updated on Tue Oct 15 2024 00:02:38 GMT+0000 (Coordinated Universal Time)

1 31102U 07009A 24288.43660713 -.00000003 00000+0 00000+0 0 9999 2 31102 0.0055 112.8264 0001792 95.8883 213.2376 1.00271149 40433
UTC large
Height (km)
Speed (km/s)
/
Latitude / Longitude
Inclination (degrees)
Orbital Period (minutes)
Azimuth
Elevation
Range (km)
Doppler Factor

Next 0 passes for location: London (51.5072 / 0.1276)

Sorry there are no passes over London.